DK8DX-13 Weather Reports


time (UTC)temp
C
wind
direction
speed
KPH
gust
KPH
rain 1hr
cm
rain 24hr
cm
rain mn
cm
humidity
%
barometer
mb
20260507073331 8 323 0.0 6.4 0.00 0.00 0.00 95 1015.1
20260507072916 7 347 0.0 4.8 0.00 0.00 0.00 95 1015.0
20260507072426 7 340 0.0 4.8 0.00 0.00 0.00 95 1015.0
20260507071946 7 328 0.0 14.5 0.00 0.00 0.00 95 1014.9
20260507071516 7 316 0.0 11.3 0.00 0.00 0.00 95 1014.7
20260507071049 7 316 0.0 11.3 0.00 0.00 0.00 95 1014.7
20260507070633 7 346 0.0 11.3 0.00 0.00 0.00 95 1014.7
20260507070219 7 321 0.0 9.7 0.00 0.00 0.00 95 1014.7
20260507065806 7 319 0.0 9.7 0.00 0.00 0.00 95 1014.7
20260507065341 7 13 0.0 11.3 0.00 0.00 0.00 95 1014.6
20260507064901 7 357 0.0 11.3 0.00 0.00 0.00 95 1014.6
20260507064426 7 3 0.0 6.4 0.00 0.00 0.00 95 1014.5
20260507063949 7 323 0.0 11.3 0.00 0.00 0.00 95 1014.5
20260507063526 7 351 0.0 9.7 0.00 0.00 0.00 95 1014.5
20260507063046 7 320 0.0 9.7 0.00 0.00 0.00 95 1014.5
20260507062636 7 320 0.0 9.7 0.00 0.00 0.00 95 1014.5
20260507062206 7 312 0.0 4.8 0.00 0.00 0.00 95 1014.4
20260507061716 7 323 0.0 9.7 0.00 0.00 0.00 95 1014.4
20260507061301 7 324 0.0 9.7 0.00 0.00 0.00 95 1014.3
20260507060846 7 331 0.0 6.4 0.00 0.00 0.00 95 1014.2
20260507060411 7 334 0.0 4.8 0.00 0.00 0.00 95 1014.2
20260507055941 7 1 0.0 6.4 0.00 0.00 0.00 95 1014.0
20260507055521 7 344 0.0 11.3 0.00 0.00 0.00 95 1014.0
20260507055056 7 344 0.0 11.3 0.00 0.00 0.00 95 1014.0
20260507054616 7 41 0.0 14.5 0.00 0.00 0.00 95 1013.9
20260507054201 7 51 0.0 3.2 0.00 0.00 0.00 95 1013.8
20260507053729 7 325 0.0 9.7 0.00 0.00 0.00 95 1013.8
20260507053309 7 354 0.0 12.9 0.00 0.00 0.00 95 1013.7
20260507052851 7 328 0.0 11.3 0.00 0.00 0.00 95 1013.7
20260507052406 7 4 0.0 11.3 0.00 0.00 0.00 95 1013.7
20260507051929 7 347 0.0 6.4 0.00 0.00 0.00 95 1013.6
20260507051449 7 338 0.0 4.8 0.00 0.00 0.00 95 1013.5
20260507051006 7 345 0.0 12.9 0.00 0.00 0.00 95 1013.5
20260507050556 7 345 0.0 12.9 0.00 0.00 0.00 95 1013.5
20260507050126 7 345 0.0 4.8 0.00 0.00 0.00 95 1013.4
20260507045645 7 350 0.0 12.9 0.00 0.00 0.00 95 1013.3
20260507045241 7 340 0.0 14.5 0.00 0.00 0.00 95 1013.3
20260507044826 7 338 0.0 16.1 0.00 0.00 0.00 95 1013.2
20260507044411 7 17 0.0 12.9 0.00 0.00 0.00 95 1013.2
20260507043926 7 357 0.0 11.3 0.00 0.00 0.00 95 1013.1
20260507043509 7 342 0.0 16.1 0.00 0.00 0.00 95 1013.1
20260507043051 7 342 0.0 16.1 0.00 0.00 0.00 95 1013.1
20260507042641 7 2 0.0 16.1 0.00 0.00 0.00 95 1013.1
20260507042216 7 321 0.0 11.3 0.00 0.00 0.00 95 1013.0
20260507041756 7 344 0.0 12.9 0.00 0.00 0.00 95 1013.0
20260507041336 7 336 0.0 16.1 0.00 0.00 0.00 95 1012.8
20260507040926 7 336 0.0 16.1 0.00 0.00 0.00 95 1012.8
20260507040456 7 2 0.0 11.3 0.00 0.00 0.00 95 1012.8
20260507040029 7 326 0.0 16.1 0.00 0.00 0.00 95 1012.8
20260507035546 7 326 0.0 16.1 0.00 0.00 0.00 95 1012.8
20260507035129 7 325 0.0 12.9 0.00 0.00 0.00 95 1012.7
20260507034651 7 351 0.0 12.9 0.00 0.00 0.00 95 1012.8
20260507034241 7 337 0.0 14.5 0.00 0.00 0.00 95 1012.9
20260507033753 7 334 0.0 6.4 0.00 0.00 0.00 95 1012.9
20260507033321 7 310 0.0 11.3 0.00 0.00 0.00 95 1012.9
20260507032836 7 317 0.0 16.1 0.00 0.00 0.00 95 1012.8
20260507032426 7 343 0.0 16.1 0.00 0.00 0.00 95 1012.7
20260507031931 7 356 0.0 11.3 0.00 0.00 0.00 95 1012.7
20260507031509 7 338 0.0 11.3 0.00 0.00 0.00 95 1012.7
20260507031046 7 338 0.0 11.3 0.00 0.00 0.00 95 1012.7
20260507030621 7 332 0.0 6.4 0.00 0.00 0.00 95 1012.6
20260507030149 7 13 0.0 12.9 0.00 0.00 0.00 95 1012.6
20260507025716 7 341 0.0 11.3 0.00 0.00 0.00 95 1012.6
20260507025226 7 333 0.0 11.3 0.00 0.00 0.00 95 1012.5
20260507024809 7 322 0.0 11.3 0.00 0.00 0.00 95 1012.5
20260507024346 7 339 0.0 9.7 0.00 0.00 0.00 95 1012.6
20260507023916 7 309 0.0 11.3 0.00 0.00 0.00 95 1012.5
20260507023501 7 311 0.0 11.3 0.00 0.00 0.00 95 1012.5
20260507023011 7 330 0.0 9.7 0.00 0.00 0.00 95 1012.4
20260507022546 7 346 0.0 11.3 0.00 0.00 0.00 95 1012.4
20260507022101 7 346 0.0 11.3 0.00 0.00 0.00 95 1012.4
20260507021606 7 351 0.0 6.4 0.00 0.00 0.00 95 1012.4
20260507021126 7 336 0.0 11.3 0.00 0.00 0.00 95 1012.4
20260507020641 7 6 0.0 11.3 0.00 0.00 0.00 95 1012.4
20260507020201 7 353 0.0 14.5 0.00 0.00 0.00 95 1012.1
20260507015746 7 1 0.0 14.5 0.00 0.00 0.00 95 1012.2
20260507015251 7 355 0.0 16.1 0.00 0.00 0.00 95 1012.2
20260507014806 7 352 0.0 11.3 0.00 0.00 0.00 95 1012.1
20260507014336 7 12 0.0 14.5 0.00 0.00 0.00 95 1012.1
20260507013928 7 343 0.0 14.5 0.00 0.00 0.00 95 1012.1
20260507013506 7 357 0.0 12.9 0.00 0.00 0.00 95 1012.1
20260507013029 7 357 0.0 12.9 0.00 0.00 0.00 95 1012.1
20260507012556 7 347 0.0 14.5 0.00 0.00 0.00 95 1011.9
20260507012126 7 347 0.0 14.5 0.00 0.00 0.00 95 1011.9
20260507011711 7 5 0.0 14.5 0.00 0.00 0.00 95 1011.9
20260507011236 7 342 0.0 16.1 0.00 0.00 0.00 95 1011.9
20260507010821 7 9 0.0 12.9 0.00 0.00 0.00 95 1012.0
20260507010349 7 15 0.0 11.3 0.00 0.00 0.00 95 1011.9
20260507005934 7 5 0.0 12.9 0.00 0.00 0.00 95 1012.0
20260507005456 7 6 0.0 12.9 0.00 0.00 0.00 95 1012.0
20260507005011 7 8 0.0 12.9 0.00 0.00 0.00 95 1011.9
20260507004546 7 8 0.0 12.9 0.00 0.00 0.00 95 1011.9
20260507004051 7 331 0.0 14.5 0.00 0.00 0.00 95 1011.9
20260507003626 7 338 0.0 12.9 0.00 0.00 0.00 95 1011.9
20260507003141 7 351 0.0 11.3 0.03 0.00 0.00 95 1011.9
20260507002701 7 354 0.0 12.9 0.05 0.00 0.00 95 1011.8
20260507002246 7 358 0.0 11.3 0.05 0.00 0.00 95 1011.8
20260507001806 7 336 0.0 11.3 0.00 0.00 0.00 95 1011.8
20260507001359 7 5 0.0 16.1 0.00 0.00 0.00 94 1011.8
20260507000921 7 341 0.0 14.5 0.00 0.00 0.00 94 1011.8
20260507000446 7 334 0.0 11.3 0.00 0.00 0.00 94 1011.8
20260507000016 7 341 0.0 12.9 0.03 0.00 0.00 94 1011.9
20260506235551 7 341 0.0 12.9 0.03 0.00 0.00 94 1011.9
20260506235116 7 1 0.0 16.1 0.05 0.00 0.00 94 1011.9
20260506234646 7 359 0.0 16.1 0.08 0.00 0.00 94 1011.9
20260506234201 7 6 0.0 9.7 0.10 0.00 0.00 94 1011.9
20260506233751 7 345 0.0 9.7 0.10 0.00 0.00 94 1011.8
20260506233331 7 337 0.0 12.9 0.13 0.00 0.00 94 1011.7
20260506232901 7 1 0.0 12.9 0.13 0.00 0.00 94 1011.8
20260506232421 7 328 0.0 9.7 0.13 0.00 0.00 94 1011.8
20260506231936 7 335 0.0 14.5 0.10 0.00 0.00 94 1011.7
20260506231511 7 336 0.0 9.7 0.10 0.00 0.00 94 1011.7
20260506231021 7 336 0.0 6.4 0.08 0.00 0.00 94 1011.7
20260506230526 7 336 0.0 6.4 0.08 0.00 0.00 94 1011.7
20260506230106 7 341 0.0 9.7 0.05 0.00 0.00 94 1011.7
20260506225641 7 341 0.0 9.7 0.05 0.00 0.00 94 1011.7
20260506225213 7 347 0.0 9.7 0.08 0.00 0.00 94 1011.8
20260506224736 7 357 0.0 9.7 0.05 0.00 0.00 94 1011.7
20260506224311 7 351 0.0 6.4 0.05 0.00 0.00 94 1011.7
20260506223841 7 319 0.0 9.7 0.05 0.00 0.00 94 1011.6
20260506223351 7 351 0.0 14.5 0.05 0.00 0.00 94 1011.5
20260506222911 7 352 0.0 11.3 0.03 0.00 0.00 94 1011.5
20260506222432 7 5 0.0 9.7 0.00 0.00 0.00 94 1011.4
20260506222016 7 338 0.0 6.4 0.00 0.00 0.00 94 1011.3
20260506221604 7 2 0.0 9.7 0.00 0.00 0.00 94 1011.4
20260506221116 7 2 0.0 9.7 0.00 0.00 0.00 94 1011.4
20260506220626 7 328 0.0 12.9 0.05 0.00 0.00 94 1011.4
20260506220213 7 322 0.0 11.3 0.05 0.00 0.00 94 1011.3
20260506215806 7 343 0.0 14.5 0.08 0.00 0.00 94 1011.3
20260506215331 7 329 0.0 11.3 0.05 0.00 0.00 94 1011.3
20260506214911 7 347 0.0 14.5 0.03 0.00 0.00 94 1011.2
20260506214451 7 8 0.0 14.5 0.00 0.00 0.00 94 1011.3
20260506214016 7 339 0.0 11.3 0.00 0.00 0.00 94 1011.3
20260506213541 7 337 0.0 9.7 0.00 0.00 0.00 94 1011.2
20260506213116 7 337 0.0 9.7 0.00 0.00 0.00 94 1011.2
20260506212706 7 2 0.0 14.5 0.00 0.00 0.00 94 1011.3
20260506212256 7 16 0.0 14.5 0.00 0.00 0.00 94 1011.3
20260506211811 7 336 0.0 9.7 0.00 0.00 0.00 94 1011.2
20260506211352 7 350 0.0 4.8 0.00 0.00 0.00 94 1011.2
20260506210931 7 2 0.0 4.8 0.00 0.00 0.00 94 1011.2
20260506210516 7 333 0.0 11.3 0.00 0.00 0.00 94 1011.1
20260506210041 7 333 0.0 11.3 0.00 0.00 0.00 94 1011.1
20260506205631 7 326 0.0 14.5 0.00 0.00 0.00 94 1011.1
20260506205153 7 350 0.0 9.7 0.00 0.00 0.00 94 1011.1
20260506204731 7 351 0.0 9.7 0.00 0.00 0.00 94 1011.1
20260506204256 7 17 0.0 9.7 0.00 0.00 0.00 94 1011.0
20260506203757 7 331 0.0 4.8 0.00 0.00 0.00 94 1011.0
20260506203316 7 14 0.0 6.4 0.00 0.00 0.00 94 1011.0
20260506202827 7 358 0.0 4.8 0.00 0.00 0.00 94 1011.0
20260506202401 7 324 0.0 6.4 0.00 0.00 0.00 94 1011.0
20260506201936 7 330 0.0 6.4 0.00 0.00 0.00 94 1010.8
20260506201456 7 334 0.0 6.4 0.00 0.00 0.00 94 1010.9
20260506201026 7 337 0.0 6.4 0.00 0.00 0.00 94 1010.8
20260506200611 7 337 0.0 6.4 0.00 0.00 0.00 94 1010.8
20260506200141 7 347 0.0 6.4 0.00 0.00 0.00 94 1010.8
20260506195701 7 325 0.0 9.7 0.00 0.00 0.00 94 1010.8
20260506195241 7 344 0.0 6.4 0.00 0.00 0.00 94 1010.7
20260506194821 7 325 0.0 11.3 0.00 0.00 0.00 94 1010.7
20260506194356 7 340 0.0 11.3 0.00 0.00 0.00 94 1010.7
20260506193926 7 15 0.0 4.8 0.00 0.00 0.00 94 1010.7
20260506193451 7 353 0.0 6.4 0.00 0.00 0.00 94 1010.6
20260506193022 7 355 0.0 4.8 0.00 0.00 0.00 94 1010.6
20260506192611 7 355 0.0 4.8 0.00 0.00 0.00 94 1010.6
20260506192141 7 5 0.0 4.8 0.00 0.00 0.00 94 1010.5
20260506191721 7 10 0.0 6.4 0.00 0.00 0.00 94 1010.4
20260506191301 7 357 0.0 9.7 0.00 0.00 0.00 94 1010.4
20260506190851 7 320 0.0 6.4 0.00 0.00 0.00 94 1010.4
20260506190431 7 15 0.0 4.8 0.00 0.00 0.00 94 1010.4
20260506185941 7 347 0.0 9.7 0.00 0.00 0.00 94 1010.3
20260506185526 7 352 0.0 9.7 0.00 0.00 0.00 94 1010.3
20260506185106 7 352 0.0 9.7 0.00 0.00 0.00 94 1010.3
20260506184621 7 340 0.0 9.7 0.00 0.00 0.00 94 1010.2
20260506184131 7 346 0.0 6.4 0.00 0.00 0.00 94 1010.2
20260506183711 7 3 0.0 1.6 0.00 0.00 0.00 94 1010.2
20260506183231 7 0.0 4.8 0.00 0.00 0.00 94 1010.1
20260506182801 7 339 0.0 9.7 0.00 0.00 0.00 93 1010.0
20260506182321 7 10 0.0 9.7 0.00 0.00 0.00 93 1010.0
20260506181846 7 347 0.0 12.9 0.00 0.00 0.00 93 1010.0
20260506181426 7 22 0.0 9.7 0.00 0.00 0.00 93 1009.9
20260506181003 7 332 0.0 6.4 0.00 0.00 0.00 93 1009.9
20260506180531 7 339 0.0 9.7 0.00 0.00 0.00 93 1009.8
20260506180126 7 339 0.0 9.7 0.00 0.00 0.00 93 1009.8
20260506175701 7 7 0.0 11.3 0.00 0.00 0.00 93 1009.8
20260506175236 7 319 0.0 11.3 0.00 0.00 0.00 93 1009.5
20260506174751 7 351 0.0 11.3 0.00 0.00 0.00 93 1009.5
20260506174321 7 1 0.0 12.9 0.05 0.00 0.00 93 1009.5
20260506173841 7 8 0.0 11.3 0.05 0.00 0.00 93 1009.5
20260506173431 8 360 0.0 11.3 0.03 0.00 0.00 93 1009.4
20260506173001 8 9 0.0 11.3 0.00 0.00 0.00 93 1009.4
20260506172516 8 353 0.0 11.3 0.00 0.00 0.00 93 1009.3
20260506172046 8 343 0.0 9.7 0.03 0.00 0.00 93 1009.3
20260506171613 8 343 0.0 9.7 0.03 0.00 0.00 93 1009.3
20260506171146 8 345 0.0 6.4 0.05 0.00 0.00 93 1009.3
20260506170721 8 8 0.0 6.4 0.05 0.00 0.00 93 1009.3
20260506170306 8 29 0.0 12.9 0.05 0.00 0.00 93 1009.3
20260506165833 8 348 0.0 6.4 0.08 0.00 0.00 93 1009.3
20260506165411 8 351 0.0 9.7 0.05 0.00 0.00 93 1009.3
20260506165001 8 360 0.0 11.3 0.08 0.00 0.00 93 1009.2
20260506164531 8 356 0.0 6.4 0.05 0.00 0.00 93 1009.2
20260506164051 8 356 0.0 6.4 0.05 0.00 0.00 93 1009.2
20260506163606 8 75 0.0 6.4 0.08 0.00 0.00 93 1009.2
20260506163146 8 8 0.0 9.7 0.05 0.00 0.00 93 1009.2
20260506162716 8 19 0.0 9.7 0.05 0.00 0.00 93 1009.1
20260506162231 8 323 0.0 9.7 0.05 0.00 0.00 93 1009.1
20260506161821 8 33 0.0 12.9 0.08 0.00 0.00 93 1009.1
20260506161413 8 26 0.0 12.9 0.08 0.00 0.00 93 1009.2
20260506160926 8 3 0.0 4.8 0.08 0.00 0.00 93 1009.1
20260506160441 8 19 0.0 12.9 0.10 0.00 0.00 93 1009.0
20260506160006 8 22 0.0 12.9 0.10 0.00 0.00 93 1009.0
20260506155551 8 22 0.0 12.9 0.10 0.00 0.00 93 1009.0
20260506155101 8 349 0.0 9.7 0.13 0.00 0.00 93 1009.1
20260506154646 8 349 0.0 9.7 0.13 0.00 0.00 93 1009.1
20260506154201 8 15 0.0 6.4 0.13 0.00 0.00 93 1009.1
20260506153731 8 6 0.0 16.1 0.13 0.00 0.00 93 1009.0
20260506153316 8 23 0.0 16.1 0.10 0.00 0.00 93 1009.1
20260506152846 8 6 0.0 12.9 0.10 0.00 0.00 93 1009.1
20260506152421 8 349 0.0 12.9 0.10 0.00 0.00 93 1009.1
20260506151941 8 347 0.0 12.9 0.13 0.00 0.00 93 1009.1
20260506151516 8 340 0.0 6.4 0.15 0.00 0.00 93 1009.1
20260506151042 8 350 0.0 24.1 0.18 0.00 0.00 93 1009.0
20260506150616 8 350 0.0 24.1 0.18 0.00 0.00 93 1009.0
20260506150146 8 6 0.0 14.5 0.18 0.00 0.00 93 1008.9
20260506145713 8 345 0.0 14.5 0.18 0.00 0.00 93 1008.9
20260506145257 8 335 0.0 6.4 0.18 0.00 0.00 93 1008.9
20260506144803 8 336 0.0 9.7 0.15 0.00 0.00 93 1008.9
20260506144326 8 9 0.0 11.3 0.15 0.00 0.00 93 1008.9
20260506143836 8 349 0.0 3.2 0.13 0.00 0.00 93 1008.9
20260506143356 8 357 0.0 9.7 0.15 0.00 0.00 93 1008.8
20260506142936 8 3 0.0 9.7 0.13 0.00 0.00 93 1008.9
20260506142451 8 3 0.0 11.3 0.15 0.00 0.00 93 1009.0
20260506142011 8 350 0.0 9.7 0.10 0.00 0.00 93 1008.9
20260506141537 8 352 0.0 6.4 0.10 0.00 0.00 93 1008.9
20260506141056 8 10 0.0 11.3 0.10 0.00 0.00 93 1008.9
20260506140632 8 10 0.0 11.3 0.10 0.00 0.00 93 1008.9
20260506140201 8 4 0.0 6.4 0.10 0.00 0.00 93 1008.8
20260506135736 8 16 0.0 11.3 0.10 0.00 0.00 93 1008.9
20260506135306 8 353 0.0 12.9 0.08 0.00 0.00 93 1008.9
20260506134816 8 332 0.0 11.3 0.08 0.00 0.00 93 1008.9
20260506134405 8 21 0.0 12.9 0.08 0.00 0.00 93 1008.7
20260506133936 8 19 0.0 12.9 0.08 0.00 0.00 93 1008.8
20260506133506 8 342 0.0 12.9 0.08 0.00 0.00 93 1008.7
20260506133046 8 342 0.0 12.9 0.08 0.00 0.00 93 1008.7
20260506132606 8 28 0.0 6.4 0.05 0.00 0.00 93 1008.7
20260506132131 8 28 0.0 6.4 0.05 0.00 0.00 93 1008.7
20260506131641 8 43 0.0 9.7 0.08 0.00 0.00 93 1008.7
20260506131156 8 352 0.0 11.3 0.05 0.00 0.00 93 1008.7
20260506130743 8 356 0.0 4.8 0.03 0.00 0.00 93 1008.7
20260506130306 8 5 0.0 4.8 0.05 0.00 0.00 93 1008.7
20260506125841 8 6 0.0 6.4 0.05 0.00 0.00 93 1008.6
20260506125411 8 344 0.0 4.8 0.08 0.00 0.00 93 1008.5
20260506124936 8 6 0.0 9.7 0.05 0.00 0.00 93 1008.4
20260506124531 8 6 0.0 12.9 0.08 0.00 0.00 93 1008.4
20260506124051 8 6 0.0 12.9 0.08 0.00 0.00 93 1008.4
20260506123610 8 11 0.0 9.7 0.05 0.00 0.00 93 1008.5
20260506123136 8 2 0.0 9.7 0.08 0.00 0.00 93 1008.5
20260506122701 8 348 0.0 4.8 0.05 0.00 0.00 93 1008.6
20260506122231 8 337 0.0 6.4 0.05 0.00 0.00 93 1008.5
20260506121806 8 358 0.0 4.8 0.05 0.00 0.00 93 1008.4
20260506121336 8 341 0.0 9.7 0.08 0.00 0.00 93 1008.3
20260506120911 8 22 0.0 6.4 0.05 0.00 0.00 93 1008.1
20260506120441 8 343 0.0 11.3 0.08 0.00 0.00 93 1008.2
20260506120021 8 354 0.0 6.4 0.05 0.00 0.00 93 1008.3
20260506115546 8 354 0.0 6.4 0.05 0.00 0.00 93 1008.3
20260506115106 8 32 0.0 6.4 0.05 0.00 0.00 93 1008.3
20260506114703 8 32 0.0 6.4 0.05 0.00 0.00 93 1008.3
20260506114221 8 350 0.0 11.3 0.03 0.00 0.00 93 1008.3
20260506113741 8 5 0.0 14.5 0.03 0.00 0.00 93 1008.1
20260506113306 8 63 0.0 11.3 0.00 0.00 0.00 94 1008.2
20260506112846 8 360 0.0 11.3 0.05 0.00 0.00 94 1008.1
20260506112413 8 27 0.0 11.3 0.05 0.00 0.00 94 1008.2
20260506111951 8 349 0.0 12.9 0.03 0.00 0.00 94 1008.0
20260506111526 8 11 0.0 12.9 0.03 0.00 0.00 94 1008.2
20260506111036 8 358 0.0 14.5 0.05 0.00 0.00 94 1008.2
20260506110606 8 358 0.0 14.5 0.05 0.00 0.00 94 1008.2
20260506110136 8 35 0.0 6.4 0.05 0.00 0.00 94 1008.2
20260506105646 8 340 0.0 9.7 0.08 0.00 0.00 94 1008.2
20260506105241 8 21 0.0 14.5 0.08 0.00 0.00 94 1008.3
20260506104811 7 345 0.0 6.4 0.10 0.00 0.00 94 1008.2
20260506104351 7 3 0.0 9.7 0.10 0.00 0.00 94 1008.2
20260506103906 7 359 0.0 6.4 0.10 0.00 0.00 94 1008.1
20260506103416 7 8 0.0 11.3 0.10 0.00 0.00 94 1008.2
20260506102941 8 348 0.0 25.7 0.10 0.00 0.00 94 1008.1
20260506102516 8 336 0.0 12.9 0.10 0.00 0.00 94 1007.9
20260506102101 8 336 0.0 12.9 0.10 0.00 0.00 94 1007.9
20260506101641 8 359 0.0 12.9 0.10 0.00 0.00 94 1007.8
20260506101211 7 354 0.0 11.3 0.13 0.00 0.00 94 1007.8
20260506100716 7 14 0.0 11.3 0.15 0.00 0.00 94 1007.8
20260506100236 7 38 0.0 4.8 0.18 0.00 0.00 94 1007.9
20260506095751 7 359 0.0 6.4 0.20 0.00 0.00 94 1007.7
20260506095331 7 1 0.0 11.3 0.18 0.00 0.00 94 1007.9
20260506094856 7 348 0.0 9.7 0.10 0.00 0.00 94 1007.8
20260506094433 7 334 0.0 9.7 0.08 0.00 0.00 94 1007.9
20260506094006 7 19 0.0 11.3 0.05 0.00 0.00 94 1007.8
20260506093521 7 357 0.0 11.3 0.05 0.00 0.00 94 1007.8
20260506093033 7 357 0.0 11.3 0.05 0.00 0.00 94 1007.8
20260506092616 7 218 0.0 3.2 0.03 0.00 0.00 94 1007.7
20260506092151 7 315 0.0 4.8 0.00 0.00 0.00 94 1007.7
20260506091736 7 284 0.0 4.8 0.00 0.00 0.00 94 1007.7
20260506091326 7 256 0.0 4.8 0.00 0.00 0.00 94 1007.6
20260506090846 7 279 0.0 11.3 0.00 0.00 0.00 94 1007.4
20260506090426 6 327 0.0 16.1 0.03 0.00 0.00 94 1007.4
20260506085951 6 322 0.0 16.1 0.05 0.00 0.00 94 1007.3
20260506085510 6 9 0.0 12.9 0.05 0.00 0.00 94 1007.2
20260506085041 6 360 0.0 11.3 0.03 0.00 0.00 94 1007.3
20260506084621 6 360 0.0 11.3 0.03 0.00 0.00 94 1007.3
20260506084151 6 251 0.0 9.7 0.00 0.00 0.00 94 1007.3
20260506083721 6 332 0.0 12.9 0.00 0.00 0.00 94 1007.2
20260506083251 7 351 0.0 12.9 0.00 0.00 0.00 94 1007.2
20260506082826 7 348 0.0 6.4 0.00 0.00 0.00 94 1007.2
20260506082416 7 56 0.0 11.3 0.00 0.00 0.00 94 1007.1
20260506081951 7 329 0.0 12.9 0.00 0.00 0.00 94 1007.1
20260506081513 7 337 0.0 14.5 0.00 0.00 0.00 94 1007.0
20260506081031 7 337 0.0 14.5 0.00 0.00 0.00 94 1007.0
20260506080600 7 2 0.0 11.3 0.00 0.00 0.00 94 1007.0
20260506080136 7 2 0.0 11.3 0.00 0.00 0.00 94 1007.0
20260506073426 7 4 0.0 12.9 0.00 0.00 0.00 94 1007.0